Regional Weather Roundup
Issued by NWS Boston, MA

Home | Current Version | Previous Version | Text Only | Print | Product List | Glossary On
Versions: 1 2 3 4 5 6 7 8 9 10 11 12 13 14 15 16 17 18 19 20 21 22 23 24 25 26 27
000
ASUS41 KBOX 221610
RWRBOX

REGIONAL WEATHER ROUNDUP
NATIONAL WEATHER SERVICE TAUNTON MA
1100 AM EST MON JAN 22 2018

NOTE:  "FAIR" INDICATES FEW OR NO CLOUDS BELOW 12,000 FEET WITH NO
SIGNIFICANT WEATHER AND/OR OBSTRUCTIONS TO VISIBILITY.

MAZALL-221700-
EASTERN MASSACHUSETTS

CITY           SKY/WX    TMP DP  RH WIND       PRES   REMARKS
BOSTON         LGT RAIN  36  35  96 CALM      30.29  FOG
BEVERLY        LGT RAIN  37  36  96 NE5       30.29F FOG
LAWRENCE       CLOUDY    38  34  85 N5        30.31S FOG
BEDFORD        LGT RAIN  36  35  96 NE5       30.28F FOG
BLUE HILL        N/A     36  36 100 SE5       30.25F
NORWOOD        LGT RAIN  39  37  92 CALM      30.29F VSB 1
MARSHFIELD     FAIR      39  39 100 CALM      30.29F FOG
PLYMOUTH       CLOUDY    39  36  89 CALM      30.29S FOG
TAUNTON        LGT RAIN  38  37  97 CALM      30.28F VSB 1
NEW BEDFORD    LGT RAIN  38  37  97 NE3       30.27F VSB 3/4
$$

MAZALL-221700-
CAPE COD AND THE ISLANDS

CITY           SKY/WX    TMP DP  RH WIND       PRES   REMARKS
FALMOUTH       FOG       36  36 100 NE5       30.29  VSB 3/4 WCI  32
HYANNIS        LGT RAIN  39  36  89 CALM      30.28S FOG
CHATHAM        CLOUDY    41  40  96 CALM      30.29F
PROVINCETOWN   LGT RAIN  40  35  83 CALM      30.30F
NANTUCKET      CLOUDY    41  40  96 SE8       30.28F FOG
MARTHAS VNYRD  CLOUDY    37  37 100 NE5       30.27F
$$

MAZALL-221700-
CENTRAL AND WESTERN MASSACHUSETTS

CITY           SKY/WX    TMP DP  RH WIND       PRES   REMARKS
WORCESTER      FOG       34  32  92 NE6       30.23F VSB<1/4 WCI  29
FITCHBURG      LGT RAIN  36  35  96 CALM      30.28F FOG
ORANGE         CLOUDY    34  34 100 CALM      30.26S FOG
SPRINGFIELD    CLOUDY    36  35  98 NW7       30.25  FOG     WCI  30
WESTFIELD      CLOUDY    34  34 100 N9        30.25R FOG     WCI  27
NORTH ADAMS    CLOUDY    36  34  92 CALM      30.23R FOG
PITTSFIELD     CLOUDY    36  33  89 NE5       30.18F FOG
$$

RIZALL-221700-
RHODE ISLAND

CITY           SKY/WX    TMP DP  RH WIND       PRES   REMARKS
PROVIDENCE     FOG       39  39 100 NE6       30.27F VSB 1/2
NEWPORT        CLOUDY    39  38  96 E7        30.25F FOG
BLOCK ISLAND   CLOUDY    41  40  96 E7        30.23F
SMITHFIELD     MIX PCPN N/A N/A N/A E3        30.26F VSB 1/2
WESTERLY       CLOUDY    42  41  96 E7        30.24F FOG
$$

CTZALL-221700-
CONNECTICUT

CITY           SKY/WX    TMP DP  RH WIND       PRES   REMARKS
BRADLEY INTL   CLOUDY    36  35  96 N10       30.25S FOG     WCI  28
HARTFORD       CLOUDY    39  36  89 N7        30.24F FOG
BRIDGEPORT     CLOUDY    43  39  86 NE8       30.21F FOG
DANBURY        CLOUDY    40  38  93 CALM      30.21F FOG
GROTON         CLOUDY    43  39  86 NE8       30.23F
NEW HAVEN      CLOUDY    44  40  85 N5        30.20F FOG
CHESTER        CLOUDY    43  39  87 E5        30.21F
MERIDEN        CLOUDY    38  35  89 N8        30.22F FOG
WILLIMANTIC    FOG       38  37  97 E6        30.24F VSB 1
OXFORD         FOG       38  37  97 E5        30.20S VSB 3/4
$$

MEZ002-015-021-024-NHZ003-005-008-011-012-014-VTZ005-008-221700-
NORTHERN NEW ENGLAND

CITY           SKY/WX    TMP DP  RH WIND       PRES   REMARKS
PORTLAND ME    CLOUDY    28  23  81 NE13      30.39R HAZE    WCI  17
BANGOR ME      FLURRIES  19  10  68 NE3       30.44F
CONCORD NH     CLOUDY    33  31  92 NE6       30.30F FOG     WCI  28
MANCHESTER NH  LGT RAIN  35  33  92 NE8       30.29S WCI  29
NASHUA NH      LGT RAIN  34  34 100 NW3       30.30F FOG
PORTSMOUTH NH  LGT RAIN  37  35  95 NE13      30.30S FOG     WCI  28
JAFFREY NH     FOG       33  33 100 CALM      30.25F VSB 3/4
KEENE NH       MIX PCPN  34  32  92 CALM      30.26F FOG
BURLINGTON VT  CLOUDY    22  16  78 NW7       30.29F WCI  13
MT. WASHINGTON FRZ DRZL  19  19 100 W18         N/A  VSB 0   WCI   4
$$

NYZ052-076-221700-
EASTERN NEW YORK

CITY           SKY/WX    TMP DP  RH WIND       PRES   REMARKS
ALBANY         CLOUDY    34  29  82 NE6       30.23F WCI  29
NEW YORK CITY  CLOUDY    42  37  82 NE8       30.21R HAZE
$$

ANZALL-221700-
MARINE OBSERVATIONS

STATION/POSITION TIME  TEMP    WIND        PRES    VSBY  WAVE
                       AIR SEA DIR/SP/G                  HT/PER
                 (UTC) (F)     (DEG/KT/KT) (MB)    (MI)  (FT/S)
BOSTON BUOY      1550   39 40   60/  2/  2 1025.5F         1/ 7
BUZZARDS BAY     1500   38     110/  9/  9 1025.4R
NANTUCKET SOUND  1550   37 37  120/  4/  4 1025.6F         0
MASS BAY-STELLWA 1504   39 39              1025.6R         1/ 8
ISLE OF SHOALS   1500   40      90/ 13/ 15 1025.6R
S OF BLOCK IS    1543      41                N/A           2/ 8
$$

......................KEY.........................
  SKY/WX - SKY CONDITION/PRESENT WEATHER
  TMP    - TEMPERATURE IN FAHRENHEIT
  DWPT   - DEWPOINT IN FAHRENHEIT
  RH     - RELATIVE HUMIDITY IN PERCENT
  WIND   - DIRECTION AND SPEED IN MPH
  PRES   - MEAN SEA LEVEL PRESSURE IN INCHES OF HG
  WCI    - WIND CHILL INDEX
  VSB    - VISIBILITY IN MILES
  HX     - HEAT INDEX
  TC     - TEMPERATURE IN CELSIUS
  VRB    - VARIABLE WIND DIRECTION
  N/A    - NOT AVAILABLE




USA.gov is the U.S. government's official web portal to all federal, state and local government web resources and services.